Погода в Бриджуотере

Канада     44°22′36″N   64°31′05″W
темп.,
°C
ветер,
м/с
пор.,
м/с
влажн.,
%
обл.,
%
осадки,
мм/ч
давл.,
гПа
погр.,
м
21 июня, пн
пн2100:00+15зюз311710 0.0 1009249
03:00+14з210770 0.0 1009202
06:00+14з29841 0.0 1010157
09:00+22зюз2562100 0.0 1011325
12:00+27юз4643100 0.0 10101437
15:00+30ююз5738100 0.0 10092345
18:00+27ююз574891 0.0 10091249
21:00+20ююз41285100 0.0 1009530
22 июня, вт
вт2200:00+18ю31298100 0.0 1009465
03:00+19ююз3139568 0.0 1008536
06:00+18ю31398100 0.0 1008463
09:00+18ююв2999100 0.8 1007311
12:00+17юв2699100 3.9 1007210
15:00+17вюв2399100 11.8 1006170
18:00+20ююз1595100 0.1 1006361
21:00+19ююв239828 0.2 100761
23 июня, ср
ср2300:00+18юз269863 0.0 1009158
03:00+17юз26100100 0.1 1009219
06:00+17зюз2699100 0.4 1009342
09:00+18зсз3697100 0.9 1011459
12:00+16ссз379150 0.1 1014560
15:00+22сз345878 0.1 10141438
18:00+24сз444395 0.0 10151925
21:00+17зсз41155100 0.0 1019495
24 июня, чт
чт2400:00+13зсз296999 0.0 1023177
03:00+11сз22680 0.0 102537
06:00+10ссз22630 0.0 102725
09:00+19ссз23390 0.0 1029472
12:00+24зюз112989 0.0 10291761
15:00+24ююв3429100 0.0 10281784
18:00+21ю5642100 0.0 1029711
21:00+14ююз2270100 0.0 103041
25 июня, пт
пт2500:00+11зюз1178100 0.0 103112
03:00+10з1173100 0.0 103113
06:00+10ююз1166100 0.0 103110
09:00+17ю244686 0.0 1031342
12:00+22ююв4534100 0.0 10301246
15:00+22ююв554695 0.0 10291408
18:00+20ююв465299 0.0 1028866
21:00+14ююв2585100 0.0 1028141